Wind_Speed
7 8 7 7 6 7 7 8 7 7 8 9 8 8 7 7 8 8 8 9 9 9 9 9 10 10 10 10 10 11 12 12 13 13 13 13 14 14 15 15 15 16 16 16
7 7 7 7 7 7 7 8 8 8 9 9 9 9 8 8 7 8 8 8 8 8 9 10 10 10 11 11 11 12 12 13 14 14 14 14 14 14 15 15 16 16 16 16
6 6 6 6 7 7 7 8 8 8 9 9 9 9 8 7 7 8 8 8 9 9 9 9 10 11 11 12 12 13 14 14 15 15 15 15 15 16 16 17 16 16 17 17
6 6 6 7 7 7 8 8 8 8 8 8 9 8 8 7 7 8 8 8 9 10 10 10 11 12 13 13 14 15 16 16 16 16 16 17 17 17 17 18 17 17 17 16
6 6 6 7 7 7 7 8 8 8 8 8 8 8 7 7 8 8 9 8 9 11 11 11 12 13 14 15 15 16 16 17 17 17 17 18 18 18 18 17 17 18 17 16
6 6 6 6 6 7 7 8 8 8 8 8 7 9 8 8 8 8 9 10 10 11 12 13 14 15 15 16 17 17 17 17 17 18 18 19 19 18 18 17 17 18 18 17
6 6 6 6 6 7 7 8 9 9 9 8 8 10 9 8 9 9 10 11 12 12 13 14 15 16 16 17 18 18 18 18 18 19 19 19 19 19 18 18 18 18 18 18
6 6 7 7 7 7 7 9 9 10 10 9 9 11 11 11 11 11 12 12 13 13 13 14 16 17 17 18 18 19 19 19 19 19 19 20 20 19 18 18 18 19 19 20
7 7 8 8 8 8 7 8 9 10 10 11 12 13 13 12 13 13 13 13 14 14 15 16 17 18 18 19 19 20 20 19 19 19 19 19 19 18 18 18 19 19 19 20
8 8 8 8 9 9 9 8 9 10 11 12 13 14 15 14 15 15 15 15 15 16 16 17 18 19 19 20 21 21 20 20 20 20 21 20 20 20 19 19 19 19 20 20
9 10 9 9 9 9 9 9 10 11 12 13 14 14 15 15 16 16 17 17 18 18 17 18 19 19 19 20 21 22 22 22 21 21 22 22 22 21 21 20 20 21 21 21
10 11 10 10 10 10 10 10 11 12 14 15 15 15 15 16 17 18 18 18 19 20 20 19 20 20 20 21 22 22 23 23 22 22 23 23 23 22 22 22 23 23 22 22
11 11 11 11 11 12 12 12 12 13 14 16 17 17 18 18 19 19 19 20 20 21 21 21 22 22 22 23 23 24 24 24 23 23 23 23 23 23 23 24 24 24 24 24
12 12 12 12 13 13 13 14 14 15 16 17 18 19 19 20 20 21 21 21 21 22 22 23 23 23 24 24 24 24 24 24 24 24 24 24 24 24 24 25 25 25 25 25
12 13 13 13 14 15 15 15 15 16 17 17 18 19 20 22 22 22 22 22 22 22 23 24 25 25 25 25 25 24 24 25 24 25 25 25 25 25 25 25 25 26 26 26
14 14 13 13 14 16 16 17 17 18 19 19 20 20 22 23 23 23 23 24 24 24 24 25 26 26 26 26 25 25 25 25 25 26 26 26 26 26 26 26 26 26 26 27
15 15 15 15 16 17 17 18 19 20 20 21 21 22 22 23 24 24 24 24 25 25 25 26 27 27 27 27 26 25 25 26 26 26 27 27 27 27 27 27 27 27 27 27
17 17 17 17 17 19 18 19 20 20 21 21 22 22 23 23 24 24 24 25 26 26 26 27 28 29 28 28 27 26 26 26 27 27 27 28 28 27 27 27 27 28 27 27
19 19 19 19 19 20 19 20 20 21 22 22 23 23 24 24 24 25 25 25 26 27 28 29 29 29 28 28 28 28 27 27 27 28 28 28 28 28 28 28 28 28 27 27
19 19 20 21 21 21 20 20 21 23 23 22 23 24 25 25 25 26 26 26 27 28 29 30 29 29 29 29 29 29 29 28 29 29 29 29 29 29 28 28 29 28 28 28
20 21 21 22 23 23 22 22 23 23 23 23 24 24 25 26 27 27 27 28 28 29 29 30 29 29 29 29 29 29 29 29 30 29 29 29 29 29 29 29 29 29 29 28
22 22 23 23 24 23 24 24 24 25 25 25 25 25 26 28 28 29 29 29 29 29 29 29 29 30 29 29 30 30 30 30 30 30 29 29 29 29 29 29 29 29 29 28
23 24 24 25 25 25 25 25 26 26 27 26 26 26 27 28 28 29 29 29 30 30 30 29 30 30 30 30 31 30 30 30 29 29 29 29 29 29 29 30 29 29 28 28
24 25 26 26 26 26 26 26 26 27 27 27 27 28 28 29 29 30 30 30 30 31 30 30 30 30 29 30 30 30 30 30 29 29 29 29 30 29 30 29 29 28 28 27
26 26 27 27 27 27 27 27 27 27 27 27 27 28 29 30 31 31 31 31 30 30 30 30 30 30 30 30 30 29 29 29 29 29 29 29 30 30 29 29 29 29 28 27
26 26 27 27 27 27 27 27 27 28 27 27 28 28 29 29 30 31 32 31 31 29 29 29 30 31 30 31 31 30 29 29 29 29 30 30 30 30 30 29 29 29 28 28
Wind_Direction
273 268 271 273 271 271 275 274 274 279 280 279 277 274 265 263 263 257 257 256 259 260 262 268 273 277 281 283 283 282 283 284 285 283 282 281 281 280 278 277 280 283 286 288
267 268 271 271 268 268 276 278 276 275 277 277 278 275 268 264 264 261 259 256 256 258 260 266 271 276 280 283 284 284 283 282 283 282 280 279 280 280 280 280 280 284 286 287
271 276 275 272 268 267 275 281 282 282 278 275 272 267 263 255 257 259 263 262 262 263 264 267 272 277 281 284 286 286 286 286 284 281 279 278 278 280 281 282 283 285 287 288
274 275 274 270 268 270 275 278 279 279 275 273 270 266 260 260 260 256 261 265 266 268 268 274 275 279 282 284 286 287 288 288 285 281 279 278 279 281 282 282 282 283 284 284
276 272 276 277 276 277 277 277 278 274 270 269 269 269 262 268 264 263 266 268 272 271 270 274 277 280 283 287 287 286 287 287 285 282 279 278 278 280 281 283 282 280 280 281
272 274 276 279 280 281 282 279 277 274 268 261 262 267 266 268 271 276 275 275 275 274 273 276 278 281 284 287 289 288 288 287 284 281 278 278 280 279 279 279 280 279 278 279
271 275 275 275 277 281 283 285 283 277 269 264 259 261 268 267 269 278 284 286 284 280 277 279 281 283 286 289 289 289 288 287 284 282 280 278 279 279 277 277 278 279 280 280
274 275 275 273 273 277 281 282 282 282 278 270 261 263 268 271 271 277 283 287 288 288 287 285 286 286 286 287 288 288 287 286 284 282 280 279 279 279 281 278 278 279 280 280
287 283 280 276 274 274 279 276 277 279 280 272 267 267 268 274 276 277 279 282 283 285 286 284 285 286 285 285 286 286 286 285 283 281 281 279 279 278 279 280 280 280 281 281
288 286 282 278 274 272 276 279 276 274 279 277 273 271 272 273 275 277 279 282 282 283 285 285 284 285 285 285 286 285 282 281 281 282 281 279 278 278 277 279 280 280 280 280
291 289 286 282 279 279 275 275 277 278 278 278 278 278 280 277 278 282 283 284 284 285 286 287 286 285 284 284 284 283 282 281 280 280 280 278 277 276 276 276 279 280 279 279
290 288 285 283 279 276 274 272 274 276 277 277 279 280 282 281 281 284 286 286 286 286 284 285 288 287 286 284 283 281 281 280 281 280 278 277 277 276 276 276 276 277 278 276
288 286 282 279 277 275 276 276 277 277 277 276 278 282 282 282 283 285 286 287 287 286 285 284 287 287 285 283 282 281 280 279 279 279 279 277 276 276 277 276 276 276 276 275
287 286 283 281 282 279 277 279 280 280 281 282 284 284 283 283 283 283 284 287 286 285 284 284 284 285 284 282 281 280 279 278 277 278 279 278 277 278 278 277 276 276 276 275
282 285 285 282 281 281 280 281 282 282 284 284 286 284 285 283 283 284 283 283 283 283 284 283 283 285 286 284 283 280 278 279 278 278 279 278 279 278 278 278 276 277 277 277
280 284 284 283 282 282 283 286 285 283 282 284 286 286 286 283 284 286 283 280 280 281 281 282 284 286 286 285 283 282 279 278 279 279 278 278 279 279 278 277 277 276 275 275
280 284 284 283 283 282 283 286 286 286 284 283 286 288 288 286 284 284 283 281 280 280 281 283 285 285 286 285 284 283 280 278 278 279 279 278 279 279 279 278 277 277 276 275
279 281 283 284 282 282 288 288 288 288 287 287 287 289 289 289 286 285 284 282 280 281 282 284 285 285 285 284 283 282 281 279 277 278 279 279 278 278 278 278 278 279 277 276
279 281 283 284 284 285 288 290 290 290 289 288 287 288 289 289 288 286 284 283 282 281 283 285 284 284 283 282 282 282 281 280 278 278 278 278 277 277 277 278 279 279 277 276
279 280 282 284 286 287 291 291 292 291 290 290 289 289 288 289 288 288 286 284 283 282 282 284 284 282 282 282 282 282 282 280 280 279 279 278 277 276 277 277 278 278 278 277
280 280 282 285 287 290 293 292 292 292 294 294 292 290 289 289 289 288 287 285 283 283 283 283 283 283 281 280 281 281 282 281 280 280 278 278 276 275 275 276 276 277 276 275
280 281 282 284 286 289 292 291 291 293 293 292 292 292 292 292 292 291 290 287 284 283 283 282 282 282 282 279 279 280 280 280 279 278 278 278 276 275 276 276 276 276 276 274
280 282 284 285 286 288 289 290 291 291 292 292 293 294 293 293 294 293 292 289 286 284 282 282 282 281 282 281 280 279 280 279 279 277 277 277 276 275 276 276 276 276 275 274
280 282 284 285 286 287 287 288 290 291 291 292 292 293 294 293 294 295 294 293 289 285 283 282 281 281 280 280 280 279 278 278 277 276 277 276 276 275 275 275 275 276 276 273
280 281 282 283 284 286 287 288 289 289 290 290 291 292 294 295 296 296 295 293 291 287 284 282 281 282 281 279 279 280 278 276 275 275 276 277 275 275 275 275 275 276 276 275
280 280 280 283 284 285 286 287 288 288 289 289 290 292 294 296 298 299 298 295 293 290 286 284 283 282 281 280 280 279 280 278 276 275 276 277 276 274 273 273 274 275 276 277
Height
5836 5837 5836 5836 5836 5836 5836 5836 5835 5835 5834 5834 5833 5833 5833 5833 5833 5834 5834 5835 5835 5835 5836 5835 5835 5835 5835 5835 5835 5834 5834 5833 5832 5832 5831 5830 5830 5829 5829 5828 5827 5826 5826 5825
5835 5834 5834 5834 5833 5833 5833 5833 5833 5833 5832 5831 5831 5831 5831 5831 5831 5832 5832 5832 5833 5833 5833 5833 5833 5832 5832 5832 5831 5831 5830 5829 5829 5828 5827 5827 5826 5825 5825 5824 5823 5822 5821 5821
5832 5833 5832 5831 5831 5831 5831 5830 5830 5830 5829 5828 5829 5829 5829 5829 5829 5829 5829 5829 5830 5830 5830 5830 5829 5829 5829 5829 5828 5827 5826 5825 5825 5824 5823 5823 5822 5821 5821 5820 5819 5818 5817 5816
5829 5829 5829 5829 5828 5828 5828 5828 5828 5827 5826 5826 5826 5826 5826 5826 5826 5826 5826 5826 5827 5827 5827 5827 5826 5826 5826 5825 5825 5824 5823 5821 5820 5820 5819 5818 5818 5817 5816 5816 5815 5814 5813 5812
5827 5827 5827 5826 5826 5826 5825 5825 5825 5824 5824 5824 5823 5823 5824 5823 5823 5823 5823 5823 5823 5824 5824 5823 5823 5822 5822 5822 5821 5820 5819 5818 5816 5815 5815 5814 5813 5813 5812 5811 5810 5809 5808 5807
5825 5825 5824 5824 5824 5823 5823 5823 5822 5821 5821 5821 5821 5820 5821 5820 5820 5820 5820 5820 5820 5820 5820 5820 5819 5819 5818 5817 5816 5815 5814 5813 5812 5811 5810 5809 5809 5808 5807 5806 5805 5804 5804 5803
5823 5823 5822 5821 5821 5821 5821 5821 5820 5818 5818 5818 5818 5817 5818 5818 5818 5817 5817 5817 5817 5816 5816 5816 5815 5814 5814 5813 5812 5811 5810 5808 5807 5806 5805 5804 5803 5803 5802 5801 5801 5800 5799 5798
5821 5821 5820 5819 5818 5818 5817 5817 5817 5816 5815 5815 5815 5814 5815 5815 5815 5814 5814 5814 5813 5812 5812 5811 5811 5810 5809 5808 5807 5806 5805 5804 5802 5801 5800 5799 5798 5797 5797 5796 5795 5794 5794 5793
5818 5818 5817 5816 5815 5815 5815 5814 5814 5813 5812 5811 5811 5811 5811 5811 5811 5811 5810 5810 5809 5808 5807 5807 5806 5805 5804 5803 5802 5800 5799 5798 5797 5796 5795 5794 5793 5792 5791 5791 5790 5789 5788 5787
5815 5815 5814 5813 5813 5812 5812 5811 5810 5809 5808 5807 5807 5807 5808 5807 5807 5806 5806 5805 5805 5804 5803 5802 5801 5800 5799 5798 5797 5795 5794 5793 5791 5790 5789 5788 5788 5787 5786 5785 5784 5783 5782 5781
5812 5812 5811 5810 5810 5809 5808 5808 5807 5806 5805 5804 5803 5806 5803 5803 5802 5802 5801 5800 5800 5799 5798 5797 5796 5795 5794 5792 5791 5790 5788 5787 5786 5785 5783 5783 5782 5781 5780 5780 5779 5777 5776 5775
5809 5808 5807 5807 5807 5805 5804 5804 5803 5803 5802 5800 5800 5803 5799 5798 5797 5797 5796 5795 5794 5793 5792 5791 5790 5789 5787 5786 5785 5783 5782 5781 5780 5778 5777 5776 5775 5775 5774 5773 5772 5771 5770 5769
5805 5804 5804 5803 5804 5802 5801 5800 5799 5799 5798 5797 5796 5798 5794 5793 5793 5792 5791 5790 5788 5787 5786 5785 5784 5782 5781 5780 5779 5777 5776 5775 5773 5772 5771 5770 5769 5768 5767 5766 5765 5764 5763 5762
5801 5800 5800 5800 5798 5797 5796 5796 5795 5794 5793 5792 5792 5791 5790 5788 5788 5787 5785 5784 5783 5781 5780 5779 5778 5776 5775 5773 5772 5770 5769 5767 5766 5765 5764 5763 5762 5761 5760 5759 5758 5757 5756 5755
5797 5796 5795 5795 5794 5792 5792 5791 5790 5789 5788 5788 5787 5786 5785 5783 5782 5781 5780 5778 5777 5775 5774 5772 5771 5769 5768 5766 5764 5763 5762 5760 5759 5758 5757 5756 5755 5753 5752 5751 5750 5749 5748 5747
5792 5792 5791 5791 5789 5788 5787 5787 5785 5784 5783 5782 5781 5781 5779 5777 5776 5775 5773 5771 5770 5769 5767 5766 5764 5762 5760 5758 5757 5756 5754 5753 5752 5750 5749 5748 5747 5746 5745 5744 5742 5741 5740 5740
5788 5788 5787 5787 5785 5783 5783 5782 5780 5779 5778 5776 5775 5775 5772 5771 5769 5768 5766 5765 5763 5762 5760 5759 5757 5755 5753 5751 5749 5748 5747 5745 5744 5742 5741 5740 5739 5738 5737 5736 5734 5733 5732 5731
5783 5782 5781 5781 5780 5778 5780 5777 5775 5773 5772 5770 5769 5767 5766 5764 5762 5760 5759 5758 5756 5755 5753 5751 5749 5747 5745 5743 5742 5740 5739 5737 5736 5734 5733 5732 5731 5730 5729 5728 5726 5725 5724 5723
5777 5776 5775 5774 5773 5772 5773 5771 5769 5767 5766 5764 5762 5761 5759 5757 5755 5753 5751 5750 5748 5747 5745 5743 5741 5739 5737 5735 5734 5732 5731 5729 5728 5726 5725 5724 5723 5722 5721 5720 5718 5717 5716 5715
5771 5770 5770 5768 5766 5766 5767 5765 5762 5761 5760 5758 5756 5754 5751 5749 5748 5747 5744 5742 5740 5739 5737 5735 5732 5730 5729 5727 5725 5724 5722 5721 5719 5718 5716 5715 5714 5713 5712 5711 5710 5709 5708 5707
5765 5764 5763 5762 5760 5759 5760 5758 5756 5755 5754 5751 5748 5746 5744 5742 5740 5738 5736 5734 5732 5730 5728 5726 5723 5722 5720 5718 5717 5715 5714 5712 5710 5709 5707 5706 5705 5704 5703 5703 5701 5700 5699 5698
5758 5757 5756 5755 5753 5755 5752 5750 5749 5748 5745 5743 5741 5739 5736 5734 5731 5729 5727 5725 5723 5721 5719 5717 5715 5713 5711 5709 5708 5706 5704 5703 5701 5700 5698 5697 5696 5695 5695 5694 5693 5691 5690 5689
5751 5751 5749 5749 5749 5747 5744 5743 5741 5739 5737 5735 5733 5731 5729 5726 5723 5721 5719 5716 5713 5711 5709 5707 5705 5703 5702 5700 5698 5697 5695 5693 5692 5691 5689 5689 5687 5686 5685 5685 5684 5683 5682 5681
5744 5743 5742 5740 5739 5738 5737 5735 5733 5731 5729 5727 5725 5723 5720 5718 5715 5713 5710 5707 5704 5701 5700 5698 5696 5694 5692 5690 5688 5686 5685 5684 5683 5681 5681 5680 5679 5678 5676 5675 5675 5674 5673 5672
5737 5736 5734 5733 5732 5730 5729 5727 5725 5723 5721 5719 5717 5715 5712 5710 5707 5704 5701 5698 5695 5692 5690 5688 5686 5684 5682 5681 5679 5677 5675 5674 5673 5672 5671 5670 5669 5669 5668 5667 5666 5665 5664 5663
5729 5727 5726 5725 5724 5722 5721 5719 5717 5715 5713 5712 5710 5707 5704 5701 5698 5695 5691 5688 5685 5683 5680 5678 5676 5674 5673 5671 5669 5667 5666 5665 5664 5663 5662 5661 5660 5659 5658 5658 5657 5656 5655 5654